Regional Weather Roundup
Issued by NWS Charleston, SC

Current Version | Previous Version | Text Only | Print | Product List | Glossary Off
Versions: 1 2 3 4 5 6 7 8 9 10 11 12 13 14 15 16 17 18 19 20 21 22 23 24 25 26 27 28 29 30 31 32 33 34 35 36 37 38 39 40 41 42 43 44 45 46 47 48 49 50
000 ASUS42 KCHS 182127 RWRCHS Regional Weather Roundup National Weather Service Charleston SC 400 PM EST SUN FEB 18 2018 NOTE: "fair" indicates few or no clouds below 12,000 feet with no significant weather and/or obstructions to visibility. Not all stations are quality controlled. Use data with caution, especially dewpoint observations. SCZ027-030-031-034>040-042>050-182200- ...Southeast South Carolina... CITY SKY/WX TMP DP RH WIND PRES REMARKS N Charleston CLOUDY 64 51 62 E14 30.30R Waterfront Prk N/A 60 54 80 E16 30.15S Mount Pleasant FAIR 61 54 77 E7 30.31R Johns Island CLOUDY 61 54 77 NE16 30.30S Pinopolis N/A 63 52 67 E7 30.20 Moncks Corner CLOUDY 59 46 63 E7G16 30.31R Summerville CLOUDY 61 52 72 E6 30.31R Beaufort MCAS CLOUDY 65 56 72 E10 30.28R Beaufort Arpt CLOUDY 61 54 77 E12 30.28S Hilton Head Is CLOUDY 61 55 82 NE12 30.29R Walterboro CLOUDY 61 54 77 SE7 30.30R Allendale CLOUDY 63 55 77 VRB3 30.27R ...Southern Midlands and Pee Dee... CITY SKY/WX TMP DP RH WIND PRES REMARKS Georgetown RAIN 54 50 87 E10G17 30.34R Kingstree CLOUDY 61 54 77 E13 30.31R Orangeburg CLOUDY 64 50 60 E5 30.28S Barnwell N/A 66 55 68 E7 30.27S Aiken CLOUDY 64 50 59 SE7 30.30S Manning MOCLDY 63 34 34 MISG 30.30S Columbia PTSUNNY 69 48 47 E8 30.27R Sumter CLOUDY 66 47 49 E9 30.27R Florence CLOUDY 66 46 48 SE10 30.30S Myrtle Beach CLOUDY 55 49 80 E13G21 30.35R N Myrtle Beach CLOUDY 57 49 74 E9G20 30.33R $$ GAZ063-065-086>088-099>101-113>116-118-119-134>141-150-182200- ...Southeast Georgia... CITY SKY/WX TMP DP RH WIND PRES REMARKS Savannah Arpt CLOUDY 66 59 78 E14 30.27R Hunter AAF CLOUDY 63 57 82 E16 30.25R Fort Stewart CLOUDY 70 63 77 NE6 30.23R Statesboro CLOUDY 70 57 64 E3 30.25S Sylvania CLOUDY 69 62 77 E6 30.26S Claxton CLOUDY 72 64 76 N6 30.25R ...CSRA, Central and far Southeast Georgia... CITY SKY/WX TMP DP RH WIND PRES REMARKS Thomson CLOUDY 64 51 62 S3 30.30S Augusta-Bush CLOUDY 68 52 56 E9 30.25S Augusta-Daniel CLOUDY 68 51 54 E7 30.26S Swainsboro CLOUDY 72 61 68 E5 30.25S Vidalia CLOUDY 73 63 68 SE3 30.24R Eastman CLOUDY 75 55 48 SE3 30.24S Hazlehurst MOCLDY 76 60 58 CALM 30.22S Alma CLOUDY 79 64 60 VRB3 30.21S Waycross PTSUNNY 81 61 51 E6 30.20S Jesup NOT AVBL Baxley CLOUDY 73 64 73 NE8 30.22S Brunswick PTSUNNY 72 61 68 E12 30.25R Saint Simons FAIR 70 63 78 E10 30.24R $$ SCZ027-028-034-036>038-045-046-048>050-GAZ119-141-182200- ...Lake and Supplemental Coastal Observations... STATION/POSITION TIME TEMP WIND PRES WAVE SWELL AIR SEA DIR/SP/G HT/PER HT/PER/DIR (UTC) (F) (DEG/KT/KT) (MB) (FT/S) (FT/S/D) Winyah Bay 2045 57 90/ 12 1027.0S Lake Murray 2120 65 110/ 4/ 6 1024.4 ACE Basin NERRS 2045 63 50/ 4 1025.0S Fort Pulaski 2100 59 60 60/ 15/ 19 1025.6 Sapelo Island 2100 72 70/ 12 1024.0 $$ ANZ835-935-AMZ111-154-330-350-352-354-370-450-454-472-182200- ...C-MAN and Buoy Observations... STATION/POSITION TIME TEMP WIND PRES WAVE SWELL AIR SEA DIR/SP/G HT/PER HT/PER/DIR (UTC) (F) (DEG/KT/KT) (MB) (FT/S) (FT/S/D) Buoy 41004 2110 65 68 60/ 19/ 23 1025.1 Buoy 41008 2050 63 61 60/ 12/ 14 1024.1S 2/10 2/100/10 Folly Beach CMAN 2100 58 50/ 19/ 22 1026.5R Capers Nearshore 2108 53 56 60/ 17/ 23 1025.6R Fripp Nearshore 2108 56 56 60/ 17/ 23 1023.6F STATION/POSITION TIME TEMP WIND PRES WAVE SWELL AIR SEA DIR/SP/G HT/PER HT/PER/DIR (UTC) (F) (DEG/KT/KT) (MB) (FT/S) (FT/S/D) 5E St. Marys GA 2100 59 N/A 2/10 Frying Pan Buoy 2110 61 64 60/ 19/ 25 1026.4 Buoy 41025 2110 53 73 30/ 19/ 25 1029.3 Cape Lookout NC 2100 50/ 23/ 26 1029.2R Buoy 41002 2050 69 73 50/ 17/ 19 1024.6R 5/ 7 2/ 70/ 8 Buoy 41010 NOT AVBL St Augustine FL 2100 62 61 100/ 2/ 2 1023.8F $$

USA.gov is the U.S. government's official web portal to all federal, state and local government web resources and services.